Kivalina, AK

10:20 AM AKST on February 25, 2017 (GMT -0900)
Kivalina

Weather History for PAVL - February, 2014

Change the Weather History Date:

Tuesday, February 25, 2014

  Actual Average (PAWN) Record (PAWN)
Temperature  
Mean Temperature 16 °F -  
Max Temperature 21 °F 7 °F 28 °F (2002)
Min Temperature 12 °F -1 °F -36 °F (2012)
Degree Days  
Heating Degree Days 48    
Moisture  
Dew Point 12 °F    
Average Humidity 78    
Maximum Humidity 86    
Minimum Humidity 57    
Precipitation  
Precipitation 0.00 in - - ()
Sea Level Pressure  
Sea Level Pressure 30.08 in    
Wind  
Wind Speed 8 mph (ESE)    
Max Wind Speed 16 mph    
Max Gust Speed 22 mph    
Visibility 9 miles    
Events Snow    
Averages and records for this station are not official NWS values.
T = Trace of Precipitation, MM = Missing Value Source: NWS Daily Summary

Daily Weather History Graph

Daily Weather History Graph

Search for Another Location

Airport or City:

Trip Planner

Search our weather history database for the weather conditions in past years. The results will help you decide how hot, cold, wet, or windy it might be!

Date:

Astronomy

Feb. 25, 2014 Rise Set
Actual Time 9:31 AM AKST 6:52 PM AKST
Civil Twilight 8:35 AM AKST 7:48 PM AKST
Nautical Twilight 7:31 AM AKST 8:52 PM AKST
Astronomical Twilight 6:26 AM AKST 9:58 PM AKST
Moon 8:08 AM AKST 1:44 PM AKST
Length of Visible Light 11h 13m
Length of Day
9h 20m
Waning Crescent, 17% of the Moon is Illuminated
Feb 25
Waning Crescent
Feb 28
New
Mar 8
First Quarter
Mar 16
Full
Mar 23
Last Quarter

Hourly Weather History & Observations

Time (AKST) Temp. Windchill Dew Point Humidity Pressure Visibility Wind Dir Wind Speed Gust Speed Precip Events Conditions
12:53 AM 12.0 °F 0.5 °F 1.0 °F 61% 29.95 in 10.0 mi East 8.1 mph - N/A   Clear
1:53 AM 12.9 °F 3.8 °F 1.0 °F 59% 29.96 in 10.0 mi ESE 5.8 mph - N/A   Mostly Cloudy
3:53 AM 12.0 °F 1.5 °F 3.0 °F 67% 29.95 in 10.0 mi East 6.9 mph - N/A   Overcast
4:53 AM 12.9 °F 1.6 °F 3.9 °F 67% 29.95 in 10.0 mi East 8.1 mph - N/A   Overcast
5:53 AM 14.0 °F - 6.1 °F 71% 29.97 in 10.0 mi Calm Calm - N/A   Overcast
6:53 AM 15.1 °F 7.7 °F 6.1 °F 68% 29.98 in 10.0 mi East 4.6 mph - N/A   Overcast
7:53 AM 19.9 °F 9.3 °F 7.0 °F 57% 29.99 in 10.0 mi SE 9.2 mph - N/A   Overcast
8:53 AM 17.1 °F 7.6 °F 9.0 °F 71% 30.01 in 10.0 mi ESE 6.9 mph - N/A   Overcast
9:53 AM 19.0 °F 8.2 °F 14.0 °F 81% 30.03 in 8.0 mi ESE 9.2 mph - 0.00 in   Overcast
10:28 AM 19.4 °F 6.6 °F 15.8 °F 86% 30.04 in 1.8 mi SE 12.7 mph - 0.00 in Snow Light Snow
10:42 AM 19.4 °F 6.0 °F 15.8 °F 86% 30.04 in 1.2 mi SE 13.8 mph - 0.00 in Snow Light Snow
10:53 AM 19.0 °F 4.5 °F 15.1 °F 85% 30.04 in 1.2 mi SE 16.1 mph 21.9 mph 0.00 in Snow Light Snow
12:06 PM 19.4 °F 5.5 °F 15.8 °F 86% 30.08 in 4.0 mi SE 15.0 mph - 0.00 in Snow Light Snow
12:53 PM 19.0 °F 7.5 °F 15.1 °F 85% 30.10 in 7.0 mi SE 10.4 mph - 0.00 in   Overcast
1:53 PM 19.9 °F 6.2 °F 15.1 °F 81% 30.12 in 10.0 mi SE 15.0 mph - N/A   Overcast
2:53 PM 19.9 °F 7.3 °F 15.1 °F 81% 30.12 in 10.0 mi SE 12.7 mph - N/A   Overcast
3:24 PM 21.2 °F 9.5 °F 15.8 °F 80% 30.13 in 10.0 mi SE 11.5 mph - N/A   Overcast
3:32 PM 21.2 °F 9.5 °F 15.8 °F 80% 30.13 in 10.0 mi SE 11.5 mph - N/A   Overcast
3:49 PM 21.2 °F 9.5 °F 15.8 °F 80% 30.13 in 10.0 mi SE 11.5 mph - N/A   Overcast
3:53 PM 21.0 °F 10.6 °F 16.0 °F 81% 30.14 in 10.0 mi SE 9.2 mph - N/A   Overcast
4:53 PM 21.0 °F 14.6 °F 16.0 °F 81% 30.14 in 10.0 mi East 4.6 mph - N/A   Overcast
5:53 PM 21.0 °F 12.4 °F 16.0 °F 81% 30.16 in 10.0 mi SE 6.9 mph - N/A   Overcast
6:53 PM 19.9 °F - 16.0 °F 85% 30.17 in 10.0 mi Calm Calm - N/A   Overcast
7:53 PM 19.0 °F 10.0 °F 15.1 °F 85% 30.18 in 10.0 mi NNE 6.9 mph - N/A   Overcast
8:53 PM 18.0 °F 9.8 °F 14.0 °F 84% 30.19 in 10.0 mi NE 5.8 mph - N/A   Overcast
9:53 PM 18.0 °F 6.1 °F 14.0 °F 84% 30.20 in 10.0 mi ENE 10.4 mph - N/A   Overcast
10:53 PM 18.0 °F 6.9 °F 12.9 °F 81% 30.21 in 10.0 mi East 9.2 mph - N/A   Overcast
11:53 PM 16.0 °F 6.3 °F 10.9 °F 81% 30.21 in 10.0 mi NE 6.9 mph - N/A   Overcast